Regional Weather Roundup
Issued by NWS

Home | Current Version | Previous Version | Graphics & Text | Print | Product List | Glossary On
Versions: 1 2 3 4 5 6 7 8 9 10 11 12 13 14 15 16 17 18 19 20 21 22 23 24 25 26 27
000
ASUS45 KBOU 220607
RWRCO

WEATHER ROUNDUP FOR COLORADO
NATIONAL WEATHER SERVICE DENVER/BOULDER CO
1100 PM MST SAT JAN 21 2017

NOTE: "FAIR" INDICATES FEW OR NO CLOUDS BELOW 12000 FEET WITH NO
SIGNIFICANT WEATHER AND/OR OBSTRUCTIONS TO VISIBILITY.

COZ001>005-013-030-031-220700-
...NORTHWEST COLORADO...

CITY           SKY/WX    TMP DP  RH WIND       PRES   REMARKS
CRAIG          LGT SNOW  27  23  85 SW14      29.85R FOG     WCI  16
HAYDEN         CLOUDY    25  21  86 W9        29.83R WCI  15
MEEKER         FLURRIES  26  25  96 MISG      29.86R
MOUNT WERNER   NOT AVBL
STEAMBOAT SPGS CLOUDY    23  21  91 S3        29.81R
WALDEN           N/A     19  18  93 CALM      29.75R
$$

COZ006>008-011-220700-
...WEST CENTRAL VALLEYS...

CITY           SKY/WX    TMP DP  RH WIND       PRES   REMARKS
GRAND JUNCTION CLOUDY    33  28  81 W5        29.89R WCI  29
MONTROSE       CLOUDY    31  29  92 W10       29.90R WCI  22
EAGLE          CLOUDY    27  24  89 CALM      29.83R
RIFLE          CLOUDY    33  25  72 W3        29.86R
DELTA          CLOUDY    36  26  67 W16G23    29.88R
NUCLA          CLOUDY    30  27  86 CALM      29.94R
$$

COZ017>023-064>068-220700-
...SOUTHWEST COLORADO...

CITY           SKY/WX    TMP DP  RH WIND       PRES   REMARKS
DURANGO        FAIR      25  18  74 W13       29.83R WCI  14
CORTEZ         CLOUDY    29  27  92 SW6       29.93R WCI  23
PAGOSA SPRINGS CLOUDY    26  26  99 CALM      29.82R
TELLURIDE      NOT AVBL
WOLF CREEK PAS CLOUDY    10  10 100 SW8       29.80R WCI  -1
$$

COZ009-010-012-014-032>034-037-058>063-220700-
...CENTRAL COLORADO...

CITY           SKY/WX    TMP DP  RH WIND       PRES   REMARKS
ASPEN          FLURRIES  24  21  88 N7        29.79R WCI  16
BUENA VISTA    FAIR      14   7  75 W8        29.72R WCI   2
COPPER MTN     NOT AVBL
BERTHOUD PASS  NOT AVBL
COTTONWOOD PAS FAIR      27  12  54 W17G26    29.70R WCI  14
GUNNISON       LGT SNOW  16  15  96 N3        29.80R FOG
KREMMLING      CLOUDY    21  16  79 CALM      29.79R
LEADVILLE      LGT SNOW  16  13  88 N8        29.70R FOG     WCI   5
MONARCH PASS   CLOUDY    12   9  85 W5        29.81R WCI   4
SALIDA         MOCLDY    25  22  88 CALM      29.80R
SUNLIGHT       CLOUDY   N/A N/A N/A MISG      29.82R
WILKERSON PASS FAIR      14   9  79 N13G24    29.71R WCI   0
$$

COZ069>075-220700-
...SAN LUIS VALLEY/SANGRE DE CRISTO MOUNTAINS...

CITY           SKY/WX    TMP DP  RH WIND       PRES   REMARKS
ALAMOSA        CLOUDY    12  10  92 W5        29.73R WCI   4
LA VETA PASS   CLOUDY    19  16  86 NE21G26   29.68R FOG     WCI   3
SAGUACHE       FAIR      27  19  74 NW20G28   29.73R WCI  13
$$

COZ035-036-038>040-220700-
...NORTHERN COLORADO FRONT RANGE...

CITY           SKY/WX    TMP DP  RH WIND       PRES   REMARKS
DENVER INTL AP MOCLDY    33  25  72 W8        29.68R WCI  26
DMNS CITY PARK   N/A     33  26  76 MISG      29.70R
AURORA         CLOUDY    32  27  81 W5        29.69R WCI  27
FRONT RANGE AP CLOUDY    32  30  93 W8        29.68R WCI  25
ERIE MUNI ARPT FAIR      29  27  92 CALM      29.69R
BOULDER MUN AP FAIR      32  25  74 CALM      29.69R
CENTENNIAL     CLOUDY    32  25  75 CALM      29.68R
BROOMFIELD     FAIR      34  27  75 NW9       29.69R WCI  26
FORT COLLINS   FAIR      30  23  74 W5        29.69R WCI  25
LONGMONT       FAIR      31  25  80 W5        29.71R WCI  26
$$

COZ041-046-047-076>085-087-088-220700-
...PIKES PEAK/PALMER DIVIDE AND SOUTHERN FOOTHILLS...

CITY           SKY/WX    TMP DP  RH WIND       PRES   REMARKS
COLO. SPRINGS  MOCLDY    34  18  52 NW13      29.68R WCI  25
A. F. ACADEMY  FAIR      25  18  76 N9        29.67R WCI  15
SCHRIEVER AFB  NOT AVBL
ELLICOTT       CLOUDY   N/A N/A N/A NE8       29.66R
FALCON         MOCLDY    30  20  65 NW12      29.68R WCI  21
FORT CARSON    NOT AVBL
LIMON          FAIR      26  25  96 W6        29.67R WCI  19
MONUMENT HILL  MOCLDY    27  21  80 W8        29.69R WCI  18
TRINIDAD       CLOUDY    31  24  75 NW9       29.67R WCI  23
$$

COZ042>045-048>051-090-091-220700-
...NORTHEAST COLORADO...

CITY           SKY/WX    TMP DP  RH WIND       PRES   REMARKS
GREELEY ARPT   FAIR      26  24  92 W3        29.70R
AKRON          CLOUDY    32  23  69 SW3       29.65R
BURLINGTON     FAIR      32  28  85 NW10      29.64R WCI  24
WRAY           NOT AVBL
STERLING       CLOUDY    32  30  93 NW5       29.65R WCI  27
HOLYOKE        FAIR      34  30  86 W5        29.65R WCI  30
FORT MORGAN    CLOUDY    32  25  74 W5        29.68R WCI  27
$$

COZ086-089-092>099-220700-
...SOUTHEAST COLORADO...

CITY           SKY/WX    TMP DP  RH WIND       PRES   REMARKS
PUEBLO         CLOUDY    32  27  81 CALM      29.68R
LA JUNTA       FAIR      33  29  85 N9        29.66R WCI  25
LAMAR          FAIR      34  30  85 N7        29.62R WCI  28
SPRINGFIELD      N/A     36  32  85 N17       29.59R
$$




USA.gov is the U.S. government's official web portal to all federal, state and local government web resources and services.